| time (UTC) | temp C | wind direction | speed KPH | gust KPH | rain 1hr cm | rain 24hr cm | rain mn cm | humidity % | barometer mb |
| 20260507104006 | 7 | 45 | 6.4 | 19.3 | 0.00 | 2.64 | 2.62 | 17 | 1022.5 |
| 20260507103005 | 7 | 180 | 11.3 | 22.5 | 0.00 | 2.64 | 2.62 | 17 | 1023.0 |
| 20260507101006 | 7 | 0 | 4.8 | 12.9 | 0.00 | 2.64 | 2.62 | 17 | 1023.0 |
| 20260507095006 | 7 | 45 | 1.6 | 9.7 | 0.00 | 2.64 | 2.62 | 17 | 1022.8 |
| 20260507094007 | 8 | 225 | 1.6 | 8.0 | 0.00 | 2.64 | 2.62 | 17 | 1022.8 |
| 20260507093006 | 8 | 45 | 1.6 | 8.0 | 0.00 | 2.64 | 2.62 | 17 | 1022.7 |
| 20260507092006 | 8 | 45 | 1.6 | 12.9 | 0.00 | 2.64 | 2.62 | 17 | 1022.7 |
| 20260507085005 | 7 | 180 | 1.6 | 8.0 | 0.00 | 2.64 | 2.62 | 17 | 1022.8 |
| 20260507084005 | 7 | 135 | 3.2 | 12.9 | 0.00 | 2.64 | 2.62 | 17 | 1022.7 |
| 20260507083007 | 7 | 90 | 3.2 | 12.9 | 0.00 | 2.64 | 2.62 | 17 | 1022.5 |
| 20260507081006 | 6 | 90 | 9.7 | 16.1 | 0.00 | 2.64 | 2.62 | 17 | 1022.4 |
| 20260507075006 | 6 | 90 | 6.4 | 14.5 | 0.00 | 2.64 | 2.62 | 17 | 1022.3 |
| 20260507074006 | 6 | 45 | 9.7 | 14.5 | 0.00 | 2.64 | 2.62 | 17 | 1022.0 |
| 20260507072006 | 7 | 90 | 3.2 | 16.1 | 1.65 | 2.64 | 2.62 | 17 | 1021.9 |
| 20260507071005 | 7 | 45 | 4.8 | 12.9 | 1.65 | 2.64 | 2.62 | 17 | 1021.9 |
| 20260507065006 | 8 | 180 | 4.8 | 14.5 | 1.65 | 2.64 | 2.62 | 17 | 1021.7 |
| 20260507064006 | 8 | 0 | 1.6 | 9.7 | 1.65 | 2.64 | 2.62 | 17 | 1021.6 |
| 20260507063006 | 6 | 135 | 4.8 | 9.7 | 1.65 | 2.64 | 2.62 | 17 | 989.9 |
| 20260507062006 | 8 | 270 | 4.8 | 11.3 | 0.00 | 2.64 | 2.62 | 17 | 1021.5 |
| 20260507061006 | 8 | 45 | 3.2 | 9.7 | 0.00 | 2.64 | 2.62 | 17 | 1021.4 |
| 20260507055006 | 7 | 270 | 4.8 | 9.7 | 0.00 | 2.64 | 2.62 | 17 | 1021.4 |
| 20260507054006 | 7 | 270 | 3.2 | 12.9 | 0.00 | 2.64 | 2.62 | 17 | 1021.1 |
| 20260507053006 | 7 | 270 | 4.8 | 9.7 | 0.00 | 2.64 | 2.62 | 17 | 1021.1 |
| 20260507051006 | 7 | 270 | 3.2 | 9.7 | 0.00 | 2.64 | 2.62 | 17 | 1021.0 |
| 20260507045006 | 6 | 270 | 3.2 | 8.0 | 0.00 | 2.64 | 2.62 | 17 | 1021.2 |
| 20260507043006 | 6 | 270 | 1.6 | 8.0 | 0.00 | 2.64 | 2.62 | 17 | 1021.1 |
| 20260507042005 | 5 | 0 | 1.6 | 9.7 | 0.00 | 2.64 | 2.62 | 17 | 1021.1 |
| 20260507041005 | 5 | 270 | 3.2 | 9.7 | 0.00 | 2.64 | 2.62 | 17 | 1021.1 |
| 20260507035006 | 3 | 225 | 3.2 | 9.7 | 0.00 | 2.64 | 2.62 | 17 | 1021.0 |
| 20260507034005 | 2 | 270 | 1.6 | 8.0 | 0.00 | 2.64 | 2.62 | 17 | 1020.8 |
| 20260507032006 | 1 | 225 | 1.6 | 4.8 | 0.00 | 2.64 | 2.62 | 17 | 1020.8 |
| 20260507031006 | 1 | 225 | 1.6 | 3.2 | 0.00 | 2.64 | 2.62 | 17 | 1020.6 |
| 20260507022005 | 0 | 270 | 1.6 | 4.8 | 0.00 | 2.64 | 2.62 | 17 | 1021.0 |
| 20260507021005 | 0 | 270 | 1.6 | 4.8 | 0.00 | 2.64 | 2.62 | 17 | 1020.7 |
| 20260507015006 | 0 | 270 | 1.6 | 4.8 | 0.00 | 2.64 | 2.62 | 17 | 1020.4 |
| 20260507013007 | 0 | 225 | 1.6 | 4.8 | 0.00 | 2.64 | 2.62 | 17 | 1020.5 |
| 20260507011006 | 0 | 225 | 1.6 | 4.8 | 0.00 | 2.64 | 2.62 | 17 | 1020.2 |
| 20260507005006 | 0 | 225 | 1.6 | 4.8 | 0.00 | 2.64 | 2.62 | 17 | 1020.2 |
| 20260507004006 | 0 | 270 | 1.6 | 4.8 | 0.00 | 2.64 | 2.62 | 17 | 1020.2 |
| 20260507002006 | 0 | 225 | 1.6 | 3.2 | 0.00 | 2.64 | 2.62 | 17 | 1020.0 |
| 20260507001006 | 0 | 270 | 1.6 | 3.2 | 0.00 | 2.64 | 2.62 | 17 | 1020.0 |
| 20260506235006 | 1 | 225 | 1.6 | 4.8 | 0.00 | 2.64 | 2.62 | 17 | 1020.1 |
| 20260506234006 | 1 | 180 | 1.6 | 9.7 | 0.00 | 2.64 | 2.62 | 17 | 1019.9 |
| 20260506233006 | 1 | 225 | 1.6 | 4.8 | 0.00 | 2.64 | 2.62 | 17 | 1020.0 |
| 20260506231005 | 2 | 270 | 1.6 | 11.3 | 0.00 | 2.64 | 2.62 | 17 | 1019.7 |
| 20260506225005 | 2 | 180 | 1.6 | 4.8 | 0.00 | 2.64 | 2.62 | 17 | 1019.5 |
| 20260506224006 | 1 | 180 | 3.2 | 8.0 | 0.00 | 2.64 | 2.62 | 17 | 1019.4 |
| 20260506223005 | 1 | 180 | 1.6 | 4.8 | 0.00 | 2.64 | 2.62 | 17 | 1019.4 |
| 20260506222006 | 2 | 180 | 1.6 | 4.8 | 0.00 | 2.64 | 2.62 | 17 | 1019.3 |
| 20260506215006 | 2 | 270 | 1.6 | 4.8 | 0.00 | 2.64 | 2.62 | 17 | 1019.3 |
| 20260506214006 | 3 | 0 | 3.2 | 9.7 | 0.00 | 2.64 | 2.62 | 17 | 1019.1 |
| 20260506213007 | 3 | 225 | 1.6 | 4.8 | 0.00 | 2.64 | 2.62 | 17 | 1019.1 |
| 20260506211005 | 4 | 270 | 3.2 | 9.7 | 0.00 | 2.64 | 2.62 | 17 | 1019.0 |
| 20260506205006 | 4 | 0 | 3.2 | 9.7 | 0.00 | 2.62 | 2.62 | 17 | 1019.0 |
| 20260506204006 | 5 | 180 | 1.6 | 11.3 | 0.00 | 2.62 | 2.62 | 17 | 1019.0 |
| 20260506203005 | 5 | 270 | 1.6 | 8.0 | 0.00 | 2.62 | 2.62 | 17 | 1019.0 |
| 20260506202006 | 5 | 0 | 3.2 | 11.3 | 0.00 | 2.62 | 2.62 | 17 | 1019.0 |
| 20260506195006 | 5 | 180 | 1.6 | 4.8 | 0.00 | 2.62 | 2.62 | 17 | 1018.7 |
| 20260506194006 | 5 | 135 | 0.0 | 8.0 | 0.00 | 2.62 | 2.62 | 17 | 1018.7 |
| 20260506192006 | 5 | 270 | 3.2 | 9.7 | 0.00 | 2.62 | 2.62 | 17 | 1018.5 |
| 20260506191006 | 5 | 225 | 3.2 | 9.7 | 0.00 | 2.62 | 2.62 | 17 | 1018.5 |
| 20260506185006 | 5 | 270 | 3.2 | 12.9 | 0.00 | 2.62 | 2.62 | 17 | 1018.3 |
| 20260506184006 | 5 | 135 | 1.6 | 9.7 | 0.00 | 2.62 | 2.62 | 17 | 1018.3 |
| 20260506183006 | 6 | 225 | 3.2 | 16.1 | 0.00 | 2.62 | 2.62 | 17 | 1018.2 |
| 20260506182005 | 6 | 45 | 3.2 | 20.9 | 0.00 | 2.62 | 2.62 | 17 | 1018.4 |
| 20260506181006 | 7 | 270 | 3.2 | 14.5 | 0.00 | 2.62 | 2.62 | 17 | 1018.3 |
| 20260506174006 | 7 | 45 | 4.8 | 16.1 | 0.00 | 2.62 | 2.62 | 17 | 1018.1 |
| 20260506173005 | 6 | 270 | 4.8 | 20.9 | 0.00 | 2.62 | 2.62 | 17 | 1018.0 |
| 20260506172005 | 7 | 0 | 3.2 | 12.9 | 0.00 | 2.62 | 2.62 | 17 | 1017.7 |
| 20260506171006 | 6 | 90 | 4.8 | 19.3 | 0.00 | 2.62 | 2.62 | 17 | 1017.6 |
| 20260506164006 | 8 | 0 | 3.2 | 19.3 | 0.00 | 2.62 | 2.62 | 17 | 1017.7 |
| 20260506163006 | 8 | 270 | 4.8 | 24.1 | 0.00 | 2.62 | 2.62 | 17 | 1017.5 |
| 20260506162006 | 8 | 270 | 8.0 | 20.9 | 0.00 | 2.62 | 2.62 | 17 | 1017.6 |
| 20260506161005 | 8 | 270 | 8.0 | 20.9 | 0.00 | 2.62 | 2.62 | 17 | 1017.5 |
| 20260506155006 | 8 | 270 | 4.8 | 20.9 | 0.00 | 2.62 | 2.62 | 17 | 1017.5 |
| 20260506154006 | 8 | 0 | 6.4 | 16.1 | 0.00 | 2.62 | 2.62 | 17 | 1017.4 |
| 20260506153007 | 8 | 270 | 6.4 | 20.9 | 0.00 | 2.62 | 2.62 | 17 | 1017.5 |
| 20260506152006 | 8 | 0 | 8.0 | 20.9 | 0.00 | 2.62 | 2.62 | 17 | 1017.6 |
| 20260506145007 | 10 | 90 | 4.8 | 16.1 | 0.00 | 2.62 | 2.62 | 17 | 1017.1 |
| 20260506144006 | 9 | 270 | 8.0 | 16.1 | 0.00 | 2.62 | 2.62 | 17 | 1017.3 |
| 20260506143006 | 10 | 225 | 4.8 | 19.3 | 0.00 | 2.62 | 2.62 | 17 | 1017.5 |
| 20260506142006 | 11 | 45 | 3.2 | 9.7 | 0.00 | 2.62 | 2.62 | 17 | 1017.4 |
| 20260506141006 | 11 | 0 | 1.6 | 12.9 | 0.00 | 2.62 | 2.62 | 17 | 1017.2 |
| 20260506135006 | 10 | 135 | 3.2 | 11.3 | 0.00 | 2.62 | 2.62 | 17 | 1017.2 |
| 20260506134007 | 10 | 338 | 3.2 | 12.9 | 0.00 | 2.62 | 2.62 | 17 | 1017.1 |
| 20260506131005 | 9 | 180 | 3.2 | 12.9 | 0.00 | 2.62 | 2.62 | 17 | 1016.9 |
| 20260506124005 | 8 | 338 | 3.2 | 11.3 | 0.00 | 2.62 | 2.62 | 17 | 1016.8 |
| 20260506123006 | 8 | 0 | 4.8 | 12.9 | 0.00 | 2.62 | 2.62 | 17 | 1016.7 |
| 20260506115006 | 7 | 315 | 3.2 | 20.9 | 1.85 | 2.62 | 2.62 | 17 | 1016.2 |
| 20260506114006 | 8 | 270 | 6.4 | 20.9 | 1.85 | 2.62 | 2.62 | 17 | 1016.2 |
| 20260506113005 | 1 | 270 | 4.8 | 16.1 | 1.85 | 2.62 | 2.62 | 17 | 994.5 |
| 20260506112006 | 9 | 270 | 4.8 | 11.3 | 1.88 | 2.62 | 2.62 | 17 | 1016.0 |